Weather History for Fairfield, IL

Change the Weather History Date:

Thursday, May 2, 2013

  Actual Average (KMVN) Record (KMVN)
Temperature  
Mean Temperature 68 °F -  
Max Temperature 78 °F 70 °F 87 °F (2012)
Min Temperature 57 °F 50 °F 35 °F (2005)
Cooling Degree Days 2    
Growing Degree Days 18 (Base 50)    
Moisture  
Dew Point 60 °F    
Average Humidity 77    
Maximum Humidity 94    
Minimum Humidity 50    
Precipitation  
Precipitation 0.00 in - - ()
Sea Level Pressure  
Sea Level Pressure 30.08 in    
Wind  
Wind Speed 3 mph (SW)    
Max Wind Speed 12 mph    
Max Gust Speed -    
Visibility 9 miles    
Events      
Averages and records for this station are not official NWS values.
T = Trace of Precipitation, MM = Missing Value Source: NWS Daily Summary

Daily Weather History Graph

Daily Weather History Graph

Search for Another Location

Airport:

Trip Planner

Search our weather history database for the weather conditions in past years. The results will help you decide how hot, cold, wet, or windy it might be!

Date:

Astronomy

May. 02, 2013 Rise Set
Actual Time 5:55 AM CDT 7:46 PM CDT
Civil Twilight 5:26 AM CDT 8:15 PM CDT
Nautical Twilight 4:52 AM CDT 8:49 PM CDT
Astronomical Twilight 4:14 AM CDT 9:27 PM CDT
Moon 1:36 AM CDT (5/2) 12:41 PM CDT (5/2)
Length of Visible Light 14h 48m
Length of Day
13h 51m
Waning Gibbous, 47% of the Moon is Illuminated
May 2
Waning Gibbous
May 9
New
May 17
First Quarter
May 24
Full
May 31
Last Quarter

Hourly Weather History & Observations

Time (CDT) Temp. Dew Point Humidity Pressure Visibility Wind Dir Wind Speed Gust Speed Precip Events Conditions
12:15 AM 64.4 °F 60.8 °F 88% 30.10 in 10.0 mi Calm Calm - N/A   Clear
12:35 AM 62.6 °F 59.0 °F 88% 30.09 in 10.0 mi Calm Calm - N/A   Clear
12:55 AM 66.2 °F 60.8 °F 83% 30.10 in 10.0 mi Calm Calm - N/A   Clear
1:15 AM 62.6 °F 59.0 °F 88% 30.09 in 10.0 mi Calm Calm - N/A   Clear
1:35 AM 60.8 °F 57.2 °F 88% 30.09 in 10.0 mi Calm Calm - N/A   Clear
1:55 AM 62.6 °F 60.8 °F 94% 30.09 in 10.0 mi Calm Calm - N/A   Clear
2:15 AM 60.8 °F 57.2 °F 88% 30.09 in 10.0 mi Calm Calm - N/A   Clear
2:35 AM 60.8 °F 57.2 °F 88% 30.08 in 10.0 mi Calm Calm - N/A   Clear
2:55 AM 59.0 °F 57.2 °F 94% 30.08 in 7.0 mi Calm Calm - N/A   Clear
3:15 AM 62.6 °F 59.0 °F 88% 30.07 in 10.0 mi Calm Calm - N/A   Clear
3:35 AM 60.8 °F 57.2 °F 88% 30.07 in 7.0 mi Calm Calm - N/A   Clear
3:55 AM 59.0 °F 55.4 °F 88% 30.07 in 7.0 mi Calm Calm - N/A   Clear
4:15 AM 59.0 °F 57.2 °F 94% 30.07 in 7.0 mi Calm Calm - N/A   Clear
4:35 AM 59.0 °F 57.2 °F 94% 30.08 in 5.0 mi Calm Calm - N/A   Clear
4:55 AM 57.2 °F 55.4 °F 94% 30.08 in 5.0 mi Calm Calm - N/A   Clear
5:15 AM 57.2 °F 55.4 °F 94% 30.09 in 4.0 mi Calm Calm - N/A   Scattered Clouds
5:35 AM 57.2 °F 55.4 °F 94% 30.09 in 5.0 mi Calm Calm - N/A   Mostly Cloudy
5:55 AM 57.2 °F 55.4 °F 94% 30.10 in 5.0 mi South 3.5 mph - N/A   Mostly Cloudy
6:15 AM 57.2 °F 55.4 °F 94% 30.10 in 5.0 mi Calm Calm - N/A   Mostly Cloudy
6:35 AM 59.0 °F 55.4 °F 88% 30.11 in 5.0 mi Calm Calm - N/A   Scattered Clouds
6:55 AM 60.8 °F 57.2 °F 88% 30.12 in 7.0 mi SW 5.8 mph - N/A   Clear
7:15 AM 62.6 °F 60.8 °F 94% 30.13 in 10.0 mi SSW 4.6 mph - N/A   Clear
7:35 AM 64.4 °F 60.8 °F 88% 30.13 in 10.0 mi SW 5.8 mph - N/A   Clear
7:55 AM 66.2 °F 60.8 °F 83% 30.14 in 10.0 mi SW 6.9 mph - N/A   Clear
8:15 AM 66.2 °F 62.6 °F 88% 30.14 in 10.0 mi SW 6.9 mph - N/A   Clear
8:35 AM 68.0 °F 60.8 °F 78% 30.14 in 10.0 mi WSW 8.1 mph - N/A   Clear
8:55 AM 69.8 °F 60.8 °F 73% 30.14 in 10.0 mi SW 10.4 mph - N/A   Scattered Clouds
9:15 AM 69.8 °F 62.6 °F 78% 30.14 in 10.0 mi WSW 8.1 mph - N/A   Scattered Clouds
9:35 AM 69.8 °F 62.6 °F 78% 30.13 in 10.0 mi WSW 9.2 mph - N/A   Scattered Clouds
9:55 AM 71.6 °F 62.6 °F 73% 30.14 in 10.0 mi WSW 9.2 mph - N/A   Mostly Cloudy
10:15 AM 71.6 °F 62.6 °F 73% 30.14 in 10.0 mi SW 8.1 mph - N/A   Scattered Clouds
10:35 AM 73.4 °F 62.6 °F 69% 30.14 in 10.0 mi SW 9.2 mph - N/A   Scattered Clouds
10:55 AM 73.4 °F 62.6 °F 69% 30.14 in 10.0 mi WSW 9.2 mph - N/A   Clear
11:15 AM 75.2 °F 62.6 °F 65% 30.13 in 10.0 mi SSW 10.4 mph - N/A   Clear
11:35 AM 75.2 °F 62.6 °F 65% 30.13 in 10.0 mi SSW 6.9 mph - N/A   Clear
11:55 AM 75.2 °F 62.6 °F 65% 30.12 in 10.0 mi SW 8.1 mph - N/A   Clear
12:15 PM 75.2 °F 62.6 °F 65% 30.11 in 10.0 mi South 5.8 mph - N/A   Clear
12:35 PM 75.2 °F 62.6 °F 65% 30.11 in 10.0 mi SSW 10.4 mph - N/A   Scattered Clouds
12:55 PM 75.2 °F 62.6 °F 65% 30.10 in 10.0 mi SSW 6.9 mph - N/A   Scattered Clouds
1:15 PM 77.0 °F 62.6 °F 61% 30.10 in 10.0 mi South 4.6 mph - N/A   Scattered Clouds
1:35 PM 77.0 °F 62.6 °F 61% 30.09 in 10.0 mi SSE 3.5 mph - N/A   Scattered Clouds
1:55 PM 77.0 °F 62.6 °F 61% 30.09 in 10.0 mi South 3.5 mph - N/A   Clear
2:15 PM 77.0 °F 62.6 °F 61% 30.08 in 10.0 mi South 5.8 mph - N/A   Scattered Clouds
2:35 PM 78.8 °F 62.6 °F 57% 30.07 in 10.0 mi South 9.2 mph - N/A   Clear
2:55 PM 78.8 °F 62.6 °F 57% 30.07 in 10.0 mi South 9.2 mph - N/A   Clear
3:15 PM 77.0 °F 60.8 °F 57% 30.06 in 10.0 mi SSE 8.1 mph - N/A   Scattered Clouds
3:35 PM 77.0 °F 60.8 °F 57% 30.04 in 10.0 mi South 10.4 mph - N/A   Scattered Clouds
3:55 PM 77.0 °F 60.8 °F 57% 30.04 in 10.0 mi South 11.5 mph - N/A   Clear
4:15 PM 78.8 °F 60.8 °F 54% 30.03 in 10.0 mi South 10.4 mph - N/A   Clear
4:35 PM 77.0 °F 57.2 °F 50% 30.03 in 10.0 mi South 9.2 mph - N/A   Clear
4:55 PM 77.0 °F 57.2 °F 50% 30.03 in 10.0 mi South 9.2 mph - N/A   Clear
5:15 PM 75.2 °F 57.2 °F 53% 30.03 in 10.0 mi South 10.4 mph - N/A   Clear
5:35 PM 75.2 °F 59.0 °F 57% 30.03 in 10.0 mi South 9.2 mph - N/A   Clear
5:55 PM 75.2 °F 59.0 °F 57% 30.04 in 10.0 mi South 9.2 mph - N/A   Clear
6:15 PM 73.4 °F 60.8 °F 65% 30.04 in 10.0 mi South 9.2 mph - N/A   Scattered Clouds
6:55 PM 73.4 °F 59.0 °F 61% 30.04 in 10.0 mi South 8.1 mph - N/A   Mostly Cloudy
7:15 PM 71.6 °F 59.0 °F 64% 30.05 in 10.0 mi SSW 8.1 mph - N/A   Mostly Cloudy
7:35 PM 71.6 °F 59.0 °F 64% 30.05 in 10.0 mi SW 4.6 mph - N/A   Mostly Cloudy
7:55 PM 69.8 °F 60.8 °F 73% 30.05 in 10.0 mi SW 3.5 mph - N/A   Overcast
8:15 PM 69.8 °F 60.8 °F 73% 30.05 in 10.0 mi WSW 3.5 mph - N/A   Overcast
8:35 PM 69.8 °F 62.6 °F 78% 30.06 in 10.0 mi NNW 6.9 mph - N/A   Overcast
8:55 PM 66.2 °F 62.6 °F 88% 30.06 in 10.0 mi NW 4.6 mph - N/A   Overcast
9:15 PM 66.2 °F 62.6 °F 88% 30.06 in 10.0 mi NW 5.8 mph - N/A   Mostly Cloudy
9:35 PM 64.4 °F 60.8 °F 88% 30.06 in 10.0 mi NNW 5.8 mph - N/A   Scattered Clouds
9:55 PM 64.4 °F 60.8 °F 88% 30.06 in 10.0 mi NNW 4.6 mph - N/A   Scattered Clouds
10:15 PM 62.6 °F 57.2 °F 82% 30.06 in 10.0 mi North 5.8 mph - N/A   Scattered Clouds
10:35 PM 60.8 °F 57.2 °F 88% 30.06 in 10.0 mi NNW 4.6 mph - N/A   Clear
10:55 PM 59.0 °F 55.4 °F 88% 30.06 in 7.0 mi NW 3.5 mph - N/A   Clear
11:15 PM 59.0 °F 55.4 °F 88% 30.06 in 7.0 mi Calm Calm - N/A   Mostly Cloudy
11:35 PM 57.2 °F 55.4 °F 94% 30.05 in 7.0 mi NNW 4.6 mph - N/A   Overcast
11:55 PM 57.2 °F 53.6 °F 88% 30.05 in 7.0 mi North 6.9 mph - N/A   Overcast